This is the latest recevied weather packets stored in our database for station/object NK2J. If no packets are shown the sender has not sent any weather packets the latest 10 day(s).
| Time | Temp. | Humidity | Pressure | Rain* | Wind** | Luminosity | Snow |
|---|---|---|---|---|---|---|---|
| 1778071506 | 12.78° C | 51% | 1016.9 hPa | 0 mm | - | 8 W/m² | - |
| 1778071203 | 12.78° C | 52% | 1016.8 hPa | 0 mm | - | 5 W/m² | - |
| 1778070901 | 12.22° C | 53% | 1016.7 hPa | 0 mm | - | 3 W/m² | - |
| 1778070599 | 12.78° C | 54% | 1016.7 hPa | 0 mm | - | 2 W/m² | - |
| 1778070295 | 12.78° C | 55% | 1016.7 hPa | 0 mm | - | 1 W/m² | - |
| 1778069994 | 12.78° C | 54% | 1016.6 hPa | 0 mm | - | 0 W/m² | - |
| 1778069690 | 12.78° C | 54% | 1016.5 hPa | 0 mm | - | 0 W/m² | - |
| 1778069387 | 12.78° C | 53% | 1016.4 hPa | 0 mm | - | 0 W/m² | - |
| 1778069085 | 13.33° C | 54% | 1016.5 hPa | 0 mm | - | 0 W/m² | - |
| 1778068782 | 12.78° C | 55% | 1016.3 hPa | 0 mm | - | 0 W/m² | - |
| 1778068480 | 12.78° C | 56% | 1016.5 hPa | 0 mm | - | 0 W/m² | - |
| 1778068178 | 12.78° C | 57% | 1016.3 hPa | 0 mm | - | 0 W/m² | - |
| 1778067875 | 12.78° C | 57% | 1016.4 hPa | 0 mm | - | 0 W/m² | - |
| 1778067573 | 13.33° C | 56% | 1016.3 hPa | 0 mm | - | 0 W/m² | - |
| 1778067271 | 13.33° C | 55% | 1016.3 hPa | 0 mm | - | 0 W/m² | - |
| 1778066967 | 13.33° C | 55% | 1016.3 hPa | 0 mm | - | 0 W/m² | - |
| 1778066665 | 13.33° C | 55% | 1016.4 hPa | 0 mm | - | 0 W/m² | - |
| 1778066362 | 13.33° C | 56% | 1016.3 hPa | 0 mm | - | 0 W/m² | - |
| 1778066060 | 13.89° C | 58% | 1016.2 hPa | 0 mm | - | 0 W/m² | - |
| 1778065757 | 13.89° C | 57% | 1016.3 hPa | 0 mm | - | 0 W/m² | - |
| 1778065455 | 13.89° C | 57% | 1016.2 hPa | 0 mm | - | 0 W/m² | - |
| 1778065151 | 13.33° C | 61% | 1016.3 hPa | 0 mm | - | 0 W/m² | - |
| 1778064847 | 13.89° C | 62% | 1016.1 hPa | 0 mm | - | 0 W/m² | - |
| 1778064545 | 13.89° C | 62% | 1016.1 hPa | 0 mm | - | 0 W/m² | - |
| 1778064243 | 13.89° C | 61% | 1016.3 hPa | 0 mm | - | 0 W/m² | - |
* Rain latest hour (hover to see other rain measurements)
** Current wind speed in m/s (hover to see current wind gust speed)